Find Starlink 37160

NORAD ID: 68282 Int'l Des: 2026-055 Owner: SPXS Country: US Constellation: starlink operational
LEOCIRCULAR

Live-Position

3D-Globus wird geladen...

Über Starlink 37160

Beschreibung wird geladen...

Nächste Überflüge

Passes for default location (London). Set your location on the main map for personalized predictions.

Höhenverlauf

Loading altitude history...

Zweizeiliger Elementsatz

1 68282U 26055W 26124.16668980 -.00890948 00000-0 -28155-1 0 9995
2 68282 53.1602 61.0385 0002133 83.5608 219.7035 15.34976091 6016
Epoch: 4. Mai 2026 • Age: 8 hours

Aktueller Status

Höhe 478.8 km
Geschwindigkeit 7.63 km/s
Subsatellitenpunkt -43.54°S, 110.77°W
Startdatum 19. März 2026
Alter 0.1 years
Typ internet

Technische Details

Klassifizierung Payload
Masse 575.00 kg
Trockenmasse 530.00 kg
Gesamtmasse 575.00 kg
Länge 0.30 m
Durchmesser 4.10 m
Spannweite 29.00 m
Form Box + pan
Hersteller SPXS
Bus-Typ Starlink V2MO
Phasenstatus In Orbit
Besitzer/Staat SPXS/US

Most Searched